Location: Observatoire de l'Aigle
(47.0607°N, 71.3152°W)
Time: 14:12:29
(UTC-05:00)

Amateur Radio Satellites - All Passes

Search period start: 19 February 2017 13:42
Search period end: 20 February 2017 13:42
Location: Observatoire de l'Aigle, 47.0607°N, 71.3152°W

Satellite Date Start Highest point End Downlink Frequencies (MHz)
Time Altitude Azimuth
YUBILEINY 19 Feb 13:52:11 13:55:56 13° 313° (NW) 13:59:43 435.215
VELOX 1 19 Feb 13:53:19 13:54:57 12° 303° (WNW) 13:56:36 145.980
AO-85 19 Feb 13:55:59 13:59:56 82° 55° (NE) 14:03:52 145.980
Tancredo 1 19 Feb 13:57:20 14:00:24 38° 9° (N) 14:03:28 437.200
DX 1 19 Feb 14:06:34 14:09:20 17° 300° (WNW) 14:12:07 434.975-435.025
BEESAT 3 19 Feb 14:16:14 14:18:38 15° 32° (NNE) 14:21:03 437.485
UKube-1 19 Feb 14:33:08 14:35:05 13° 302° (WNW) 14:37:01 .
BEESAT 2 19 Feb 14:39:33 14:41:35 13° 29° (NNE) 14:43:35 435.950
ISS 19 Feb 14:52:29 14:55:46 59° 20° (NNE) 14:59:01 437.550
MOZHAYETS 4 19 Feb 15:00:37 15:05:04 44° 98° (E) 15:09:27
ITUPSAT 1 19 Feb 15:05:49 15:10:37 69° 288° (WNW) 15:15:23 437.325
AO-7 19 Feb 15:06:48 15:14:49 49° 259° (W) 15:22:53 .
BEESAT 19 Feb 15:17:08 15:21:49 53° 290° (WNW) 15:26:28 436.000
ITAMSAT 1 19 Feb 15:19:33 15:23:27 21° 268° (W) 15:27:25 435.822/435.867
Tancredo 1 19 Feb 15:33:40 15:36:54 76° 210° (SSW) 15:40:06 437.200
STARS 19 Feb 15:38:40 15:40:59 14° 90° (E) 15:43:18 437.465
AO-85 19 Feb 15:38:46 15:39:41 11° 250° (WSW) 15:40:36 145.980
CUTE-I 19 Feb 15:39:08 15:42:42 18° 57° (ENE) 15:46:16 437.470
CUBESAT XI-V 19 Feb 15:42:23 15:45:50 21° 91° (E) 15:49:18 437.345
BEESAT 3 19 Feb 15:52:54 15:56:56 77° 52° (NE) 16:00:56 437.485
BEESAT 2 19 Feb 16:16:10 16:20:11 59° 50° (NE) 16:24:11 435.950
KKS-1 19 Feb 16:20:28 16:24:57 76° 104° (ESE) 16:29:25 437.445
XW-2F 19 Feb 16:21:25 16:24:45 29° 68° (ENE) 16:28:06 145.980 - 146.000
XW-2D 19 Feb 16:21:50 16:25:13 30° 69° (ENE) 16:28:38 145.860 - 145.880
DOVE 4 19 Feb 16:23:25 16:27:10 34° 69° (ENE) 16:30:57 437.250
XW-2B 19 Feb 16:26:36 16:30:04 33° 69° (ENE) 16:33:34 145.730 - 145.750
KAITUO 1B 19 Feb 16:27:59 16:31:17 29° 68° (ENE) 16:34:36 145.475/437.950
ISS 19 Feb 16:29:11 16:32:05 29° 218° (SW) 16:34:58 437.550
XW-2C 19 Feb 16:34:46 16:38:23 41° 71° (ENE) 16:42:03 145.795 - 145.815
MOZHAYETS 4 19 Feb 16:38:17 16:41:58 24° 296° (WNW) 16:45:38
LilacSat-2 19 Feb 16:44:13 16:48:00 55° 73° (ENE) 16:51:49 437.200
M-CUBED/EXP-1 PRIME 19 Feb 16:44:55 16:48:09 31° 104° (ESE) 16:51:34 437.505
ITUPSAT 1 19 Feb 16:46:19 16:47:34 11° 306° (NW) 16:48:47 437.325
HO-68 19 Feb 17:03:27 17:09:34 31° 57° (ENE) 17:15:40 435.675
XW-2A 19 Feb 17:04:11 17:06:05 14° 63° (ENE) 17:07:58 145.665 - 145.685
NUDT-PHONESAT 19 Feb 17:10:33 17:14:18 88° 85° (E) 17:18:07 437.300
Tancredo 1 19 Feb 17:11:08 17:12:44 13° 226° (SW) 17:14:19 437.200
STARS 19 Feb 17:13:24 17:17:48 68° 288° (WNW) 17:22:12 437.465
CUTE-I 19 Feb 17:16:48 17:22:07 78° 255° (WSW) 17:27:31 437.470
RS-15 19 Feb 17:17:24 17:28:15 43° 108° (ESE) 17:39:27 29.354- 29.394
CUBESAT XI-V 19 Feb 17:19:03 17:23:29 47° 289° (WNW) 17:27:53 437.345
PCSat 19 Feb 17:19:27 17:24:46 63° 118° (ESE) 17:30:09 145.827
BEESAT 3 19 Feb 17:32:12 17:33:58 13° 250° (WSW) 17:35:43 437.485
SEEDS 19 Feb 17:38:12 17:41:13 19° 63° (ENE) 17:44:16 437.485
AAUSAT CUBESAT 2 19 Feb 17:48:37 17:50:34 13° 60° (ENE) 17:52:32 437.432
BEESAT 2 19 Feb 17:54:55 17:57:34 17° 248° (WSW) 18:00:11 435.950
XW-2F 19 Feb 17:55:43 17:58:54 25° 266° (W) 18:02:06 145.980 - 146.000
XW-2D 19 Feb 17:56:20 17:59:27 23° 266° (W) 18:02:35 145.860 - 145.880
KKS-1 19 Feb 17:58:30 18:00:56 15° 301° (WNW) 18:03:22 437.445
XW-2B 19 Feb 18:01:22 18:04:21 21° 267° (W) 18:07:22 145.730 - 145.750
DOVE 4 19 Feb 18:01:40 18:05:00 23° 266° (W) 18:08:19 437.250
KAITUO 1B 19 Feb 18:02:10 18:05:19 24° 266° (W) 18:08:28 145.475/437.950
CUTE 1.7 + AOD 2 19 Feb 18:02:28 18:06:35 47° 71° (ENE) 18:10:43 437.475
UWE-3 19 Feb 18:04:32 18:07:26 17° 61° (ENE) 18:10:23 435.000/436.395/437.385
XW-2C 19 Feb 18:10:11 18:12:47 17° 268° (W) 18:15:25 145.795 - 145.815
Oscar 11 19 Feb 18:14:19 18:15:26 11° 57° (ENE) 18:16:34 .
STRAND 1 19 Feb 18:18:33 18:22:42 24° 93° (E) 18:26:48 437.568
M-CUBED/EXP-1 PRIME 19 Feb 18:19:44 18:22:32 22° 299° (WNW) 18:25:28 437.505
LilacSat-2 19 Feb 18:20:40 18:22:38 13° 271° (W) 18:24:36 437.200
XW-2A 19 Feb 18:35:18 18:38:31 41° 261° (W) 18:41:47 145.665 - 145.685
ZACube-1 19 Feb 18:39:58 18:43:27 23° 64° (ENE) 18:47:01 437.345
CUBEBUG 2 19 Feb 18:47:39 18:51:57 64° 73° (ENE) 18:56:27 437.445
HO-68 19 Feb 18:49:44 18:56:51 64° 257° (WSW) 19:04:00 435.675
CUTE-I 19 Feb 19:01:30 19:03:03 11° 275° (W) 19:04:37 437.470
PCSat 19 Feb 19:03:56 19:08:34 28° 319° (NW) 19:13:16 145.827
SEEDS 19 Feb 19:12:29 19:16:36 47° 261° (W) 19:20:43 437.485
AAUSAT CUBESAT 2 19 Feb 19:21:19 19:25:28 74° 257° (WSW) 19:29:40 437.432
RS-15 19 Feb 19:28:07 19:40:09 70° 314° (NW) 19:52:36 29.354- 29.394
AO-73 19 Feb 19:31:17 19:35:38 64° 74° (ENE) 19:40:07 145.935
UWE-3 19 Feb 19:39:03 19:43:24 61° 259° (W) 19:47:54 435.000/436.395/437.385
CUTE 1.7 + AOD 2 19 Feb 19:39:38 19:42:40 19° 269° (W) 19:45:44 437.475
Oscar 11 19 Feb 19:46:28 19:50:50 82° 77° (ENE) 19:55:13 .
STRAND 1 19 Feb 19:57:08 20:02:09 51° 291° (WNW) 20:07:06 437.568
YUBILEINY 19 Feb 19:58:04 20:04:47 24° 59° (ENE) 20:11:26 435.215
ZACube-1 19 Feb 20:15:17 20:19:28 43° 262° (W) 20:23:48 437.345
DELFI C3 19 Feb 20:17:17 20:21:11 57° 73° (ENE) 20:25:05 145.870
CUBEBUG 2 19 Feb 20:26:35 20:29:04 15° 272° (W) 20:31:36 437.445
HO-68 19 Feb 20:43:38 20:45:59 12° 277° (W) 20:48:21 435.675
ESTCUBE 1 19 Feb 20:47:36 20:49:41 13° 58° (ENE) 20:51:45 437.505/2401.250
PCSat 19 Feb 20:52:46 20:53:54 11° 344° (NNW) 20:55:04 145.827
AO-73 19 Feb 21:09:50 21:12:21 15° 272° (W) 21:14:53 145.935
UNISAT 6 19 Feb 21:13:36 21:17:40 28° 94° (E) 21:21:43 437.425
TIGRISAT 19 Feb 21:15:57 21:20:00 28° 94° (E) 21:24:02 435.000
Oscar 11 19 Feb 21:26:16 21:27:33 11° 273° (W) 21:28:50 .
PRISM 19 Feb 21:26:23 21:30:29 84° 106° (ESE) 21:34:33 437.425
VELOX 1 19 Feb 21:40:34 21:43:05 15° 59° (ENE) 21:45:37 145.980
RS-15 19 Feb 21:44:14 21:55:20 37° 344° (NNW) 22:06:32 29.354- 29.394
YUBILEINY 19 Feb 21:54:05 22:02:53 89° 269° (W) 22:11:36 435.215
DELFI C3 19 Feb 21:54:21 21:56:20 13° 270° (W) 21:58:21 145.870
DX 1 19 Feb 21:55:39 21:56:15 10° 56° (NE) 21:56:52 434.975-435.025
FO-29 19 Feb 22:09:42 22:17:20 51° 97° (E) 22:24:26 435.910
POLYITAN 1 19 Feb 22:14:31 22:15:40 11° 87° (E) 22:16:48 437.675
QB50P2 19 Feb 22:16:35 22:18:25 12° 88° (E) 22:20:15 145.880/145.840
UKube-1 19 Feb 22:19:15 22:21:14 13° 58° (ENE) 22:23:13 .
NANOSAT C BR1 19 Feb 22:19:57 22:21:21 11° 88° (E) 22:22:46 145.865
50 SAT 19 Feb 22:20:27 22:23:04 20° 66° (ENE) 22:25:41 437.505
ESTCUBE 1 19 Feb 22:21:17 22:25:49 87° 252° (WSW) 22:30:22 437.505/2401.250
SO-50 19 Feb 22:31:19 22:34:30 18° 112° (ESE) 22:37:39 436.795
SPROUT 19 Feb 22:35:13 22:39:07 37° 69° (ENE) 22:43:04 437.525
AIST 2D 19 Feb 22:44:03 22:47:19 32° 97° (E) 22:50:33 435.315
UNISAT 6 19 Feb 22:50:06 22:54:26 37° 292° (WNW) 22:58:44 437.425
TIGRISAT 19 Feb 22:52:25 22:56:45 37° 292° (WNW) 23:01:04 435.000
PRISM 19 Feb 23:03:47 23:05:09 12° 302° (WNW) 23:06:32 437.425
VELOX 1 19 Feb 23:14:39 23:19:01 69° 257° (WSW) 23:23:25 145.980
BUGSAT 1 19 Feb 23:17:55 23:20:29 16° 91° (E) 23:23:04 437.445
DX 1 19 Feb 23:27:22 23:31:40 77° 75° (ENE) 23:36:01 434.975-435.025
DUCHIFAT 1 19 Feb 23:29:01 23:33:13 53° 100° (E) 23:37:24 145.980
O/OREOS (USA 219) 19 Feb 23:30:53 23:35:15 56° 110° (ESE) 23:39:40 437.305
EO-79 19 Feb 23:32:13 23:36:31 69° 102° (ESE) 23:40:47 145.935-145.965
POLYITAN 1 19 Feb 23:47:42 23:52:02 82° 283° (WNW) 23:56:20 437.675
QB50P2 19 Feb 23:50:25 23:54:42 72° 286° (WNW) 23:58:59 145.880/145.840
Oscar 19 19 Feb 23:51:32 23:53:19 12° 86° (E) 23:55:07 437.125/150
UKube-1 19 Feb 23:52:21 23:56:39 81° 256° (WSW) 00:00:59 .
YUBILEINY 19 Feb 23:52:29 23:58:26 21° 284° (WNW) 00:04:21 435.215
50 SAT 19 Feb 23:52:53 23:56:02 30° 263° (W) 23:59:12 437.505
NANOSAT C BR1 19 Feb 23:53:20 23:57:37 78° 285° (WNW) 00:01:53 145.865
FO-29 19 Feb 23:54:56 00:02:09 42° 298° (WNW) 00:09:00 435.910
RS-15 20 Feb 00:00:49 00:12:08 38° 18° (NNE) 00:23:15 29.354- 29.394
ESTCUBE 1 20 Feb 00:02:59 00:03:18 10° 274° (W) 00:03:38 437.505/2401.250
SO-50 20 Feb 00:09:50 00:14:31 68° 310° (NW) 00:19:07 436.795
SPROUT 20 Feb 00:11:45 00:15:09 23° 266° (W) 00:18:35 437.525
AIST 2D 20 Feb 00:17:45 00:20:21 19° 294° (WNW) 00:22:56 435.315
PCSat 20 Feb 00:21:26 00:25:42 22° 37° (NE) 00:29:55 145.827
ITUPSAT 1 20 Feb 00:38:34 00:42:33 27° 63° (ENE) 00:46:33 437.325
BEESAT 20 Feb 00:49:08 00:53:23 33° 66° (ENE) 00:57:39 436.000
BUGSAT 1 20 Feb 00:52:03 00:56:11 56° 288° (WNW) 01:00:20 437.445
DUCHIFAT 1 20 Feb 01:05:37 01:08:30 18° 298° (WNW) 01:11:23 145.980
DX 1 20 Feb 01:06:50 01:08:24 12° 271° (W) 01:10:00 434.975-435.025
EO-79 20 Feb 01:09:23 01:11:46 15° 300° (WNW) 01:14:08 145.935-145.965
O/OREOS (USA 219) 20 Feb 01:11:38 01:15:00 21° 310° (NW) 01:18:26 437.305
Gurwin Techsat 1B 20 Feb 01:22:55 01:28:01 44° 98° (E) 01:33:06 435.225
POLYITAN 1 20 Feb 01:26:04 01:27:05 11° 303° (WNW) 01:28:06 437.675
Oscar 19 20 Feb 01:28:16 01:33:25 85° 104° (ESE) 01:38:32 437.125/150
NANOSAT C BR1 20 Feb 01:32:13 01:32:34 10° 304° (WNW) 01:32:56 145.865
FO-29 20 Feb 01:42:52 01:45:06 11° 319° (NW) 01:47:18 435.910
KKS-1 20 Feb 01:47:28 01:49:38 13° 58° (ENE) 01:51:47 437.445
ITAMSAT 1 20 Feb 01:49:32 01:52:39 16° 89° (E) 01:55:46 435.822/435.867
SO-50 20 Feb 01:52:46 01:55:48 17° 331° (NNW) 01:58:49 436.795
PCSat 20 Feb 02:04:20 02:09:48 87° 238° (WSW) 02:15:14 145.827
MOZHAYETS 4 20 Feb 02:05:00 02:09:34 59° 72° (ENE) 02:14:10
RS-15 20 Feb 02:14:35 02:27:03 76° 49° (NE) 02:39:01 29.354- 29.394
ITUPSAT 1 20 Feb 02:15:37 02:20:11 42° 262° (W) 02:24:46 437.325
BEESAT 20 Feb 02:26:49 02:31:08 33° 264° (W) 02:35:28 436.000
STARS 20 Feb 02:37:54 02:41:00 19° 61° (ENE) 02:44:05 437.465
CUBESAT XI-V 20 Feb 02:48:16 02:52:18 29° 66° (ENE) 02:56:20 437.345
Gurwin Techsat 1B 20 Feb 03:03:14 03:07:47 29° 297° (WNW) 03:12:19 435.225
AO-7 20 Feb 03:04:26 03:12:29 50° 101° (E) 03:20:26 .
Oscar 19 20 Feb 03:09:02 03:12:05 16° 303° (WNW) 03:15:07 437.125/150
KKS-1 20 Feb 03:21:09 03:25:34 82° 255° (WSW) 03:30:01 437.445
ITAMSAT 1 20 Feb 03:27:27 03:32:44 78° 287° (WNW) 03:37:57 435.822/435.867
M-CUBED/EXP-1 PRIME 20 Feb 03:34:05 03:37:24 70° 69° (ENE) 03:40:40 437.505
MOZHAYETS 4 20 Feb 03:44:04 03:47:07 17° 270° (W) 03:50:11
PCSat 20 Feb 03:49:36 03:52:23 14° 257° (WSW) 03:55:08 145.827
STARS 20 Feb 04:12:44 04:16:58 52° 259° (W) 04:21:17 437.465
AO-85 20 Feb 04:15:26 04:17:18 12° 110° (ESE) 04:19:07 145.980
CUBESAT XI-V 20 Feb 04:25:18 04:29:35 35° 264° (W) 04:33:52 437.345
RS-15 20 Feb 04:27:51 04:38:39 39° 254° (WSW) 04:49:06 29.354- 29.394
AO-7 20 Feb 04:57:25 05:05:12 46° 301° (WNW) 05:12:56 .
ITAMSAT 1 20 Feb 05:08:50 05:11:20 14° 306° (NW) 05:13:51 435.822/435.867
SO-50 20 Feb 05:18:52 05:20:49 12° 21° (NNE) 05:22:46 436.795
XW-2F 20 Feb 05:24:29 05:27:48 27° 95° (E) 05:31:04 145.980 - 146.000
XW-2D 20 Feb 05:25:18 05:28:42 29° 96° (E) 05:32:03 145.860 - 145.880
KAITUO 1B 20 Feb 05:30:03 05:33:18 26° 95° (E) 05:36:30 145.475/437.950
XW-2B 20 Feb 05:30:07 05:33:37 31° 96° (E) 05:37:03 145.730 - 145.750
CUTE-I 20 Feb 05:30:56 05:35:48 33° 96° (E) 05:40:37 437.470
STRAND 1 20 Feb 05:37:04 05:41:56 46° 68° (ENE) 05:46:52 437.568
XW-2C 20 Feb 05:38:23 05:42:02 39° 98° (E) 05:45:39 145.795 - 145.815
LilacSat-2 20 Feb 05:48:34 05:52:24 54° 100° (E) 05:56:10 437.200
AO-85 20 Feb 05:52:38 05:57:10 88° 314° (NW) 06:01:23 145.980
DOVE 4 20 Feb 05:55:13 05:59:43 67° 101° (E) 06:04:29 437.250
NUDT-PHONESAT 20 Feb 06:12:03 06:15:51 82° 103° (ESE) 06:19:37 437.300
HO-68 20 Feb 06:14:52 06:20:14 22° 90° (E) 06:25:32 435.675
CUBEBUG 2 20 Feb 06:37:03 06:39:04 12° 87° (E) 06:41:04 437.445
PRISM 20 Feb 06:46:44 06:47:39 11° 57° (ENE) 06:48:34 437.425
AO-7 20 Feb 06:52:10 06:55:55 14° 325° (NW) 06:59:39 .
SEEDS 20 Feb 06:53:37 06:56:56 22° 93° (E) 07:00:13 437.485
SO-50 20 Feb 06:58:13 07:02:31 40° 44° (NE) 07:06:45 436.795
XW-2F 20 Feb 06:58:40 07:01:54 26° 293° (WNW) 07:05:06 145.980 - 146.000
XW-2D 20 Feb 06:59:38 07:02:48 25° 293° (WNW) 07:05:56 145.860 - 145.880
AAUSAT CUBESAT 2 20 Feb 07:01:48 07:03:58 14° 89° (E) 07:06:07 437.432
KAITUO 1B 20 Feb 07:04:04 07:07:16 26° 293° (WNW) 07:10:27 145.475/437.950
XW-2B 20 Feb 07:04:36 07:07:40 23° 294° (WNW) 07:10:42 145.730 - 145.750
CUTE-I 20 Feb 07:10:55 07:15:53 39° 294° (WNW) 07:20:49 437.470
XW-2C 20 Feb 07:13:14 07:15:59 19° 296° (WNW) 07:18:42 145.795 - 145.815
STRAND 1 20 Feb 07:17:03 07:21:19 26° 267° (W) 07:25:38 437.568
AO-73 20 Feb 07:18:44 07:19:53 11° 86° (E) 07:21:02 145.935
CUTE 1.7 + AOD 2 20 Feb 07:19:49 07:24:02 62° 101° (E) 07:28:12 437.475
BEESAT 3 20 Feb 07:22:39 07:26:24 47° 121° (ESE) 07:30:14 437.485
LilacSat-2 20 Feb 07:24:03 07:26:15 15° 298° (WNW) 07:28:27 437.200
UWE-3 20 Feb 07:25:54 07:29:41 24° 92° (E) 07:33:26 435.000/436.395/437.385
XW-2A 20 Feb 07:26:48 07:30:14 62° 286° (WNW) 07:33:40 145.665 - 145.685
Oscar 11 20 Feb 07:32:30 07:34:19 12° 88° (E) 07:36:08 .
DOVE 4 20 Feb 07:34:12 07:37:00 17° 298° (WNW) 07:39:54 437.250
AO-85 20 Feb 07:35:13 07:38:07 17° 326° (NW) 07:40:55 145.980
BEESAT 2 20 Feb 07:47:44 07:51:24 37° 119° (ESE) 07:55:07 435.950
NUDT-PHONESAT 20 Feb 07:48:41 07:49:10 10° 301° (WNW) 07:49:40 437.300
O/OREOS (USA 219) 20 Feb 07:58:51 08:02:39 25° 52° (NE) 08:06:28 437.305
ZACube-1 20 Feb 08:00:25 08:04:31 31° 95° (E) 08:08:33 437.345
HO-68 20 Feb 08:01:32 08:08:43 80° 290° (WNW) 08:15:52 435.675
CUBEBUG 2 20 Feb 08:11:31 08:16:18 85° 284° (WNW) 08:21:03 437.445
UNISAT 6 20 Feb 08:15:09 08:19:10 34° 67° (ENE) 08:23:19 437.425
TIGRISAT 20 Feb 08:17:21 08:21:21 33° 67° (ENE) 08:25:27 435.000
PRISM 20 Feb 08:18:10 08:22:16 88° 77° (ENE) 08:26:23 437.425
FO-29 20 Feb 08:24:36 08:30:47 34° 59° (ENE) 08:37:28 435.910
SEEDS 20 Feb 08:28:52 08:32:45 37° 291° (WNW) 08:36:35 437.485
AAUSAT CUBESAT 2 20 Feb 08:35:46 08:39:50 59° 287° (WNW) 08:43:52 437.432
SO-50 20 Feb 08:38:55 08:42:52 31° 243° (WSW) 08:46:47 436.795
AO-73 20 Feb 08:52:10 08:56:47 90° 302° (WNW) 09:01:19 145.935
CUTE 1.7 + AOD 2 20 Feb 08:56:53 08:59:24 16° 299° (WNW) 09:01:54 437.475
BEESAT 3 20 Feb 09:00:59 09:04:14 24° 321° (NW) 09:07:32 437.485
UWE-3 20 Feb 09:01:51 09:06:18 43° 290° (WNW) 09:10:43 435.000/436.395/437.385
YUBILEINY 20 Feb 09:04:52 09:11:11 23° 77° (ENE) 09:17:30 435.215
Oscar 11 20 Feb 09:06:38 09:10:59 73° 285° (WNW) 09:15:16 .
POLYITAN 1 20 Feb 09:09:43 09:11:48 13° 59° (ENE) 09:13:53 437.675
ISS 20 Feb 09:11:18 09:13:30 17° 136° (SE) 09:15:42 437.550
QB50P2 20 Feb 09:12:01 09:14:26 15° 60° (ENE) 09:16:52 145.880/145.840
NANOSAT C BR1 20 Feb 09:14:48 09:16:57 14° 59° (ENE) 09:19:06 145.865
AIST 2D 20 Feb 09:21:48 09:24:29 20° 66° (ENE) 09:27:11 435.315
BEESAT 2 20 Feb 09:25:44 09:29:15 29° 318° (NW) 09:32:48 435.950
DELFI C3 20 Feb 09:26:00 09:29:55 62° 102° (ESE) 09:33:48 145.870
ZACube-1 20 Feb 09:36:41 09:40:46 32° 293° (WNW) 09:44:49 437.345
O/OREOS (USA 219) 20 Feb 09:37:55 09:42:16 44° 251° (WSW) 09:46:36 437.305
Tancredo 1 20 Feb 09:49:33 09:52:32 34° 144° (SE) 09:55:32 437.200
CUBEBUG 2 20 Feb 09:50:02 09:52:10 13° 303° (WNW) 09:54:18 437.445
HO-68 20 Feb 09:50:34 09:55:24 20° 310° (NW) 10:00:14 435.675
UNISAT 6 20 Feb 09:52:03 09:55:54 28° 266° (W) 09:59:52 437.425
TIGRISAT 20 Feb 09:54:12 09:58:03 29° 266° (W) 10:02:02 435.000
FO-29 20 Feb 10:08:29 10:15:19 62° 260° (W) 10:22:56 435.910
BUGSAT 1 20 Feb 10:10:46 10:13:21 17° 62° (ENE) 10:15:57 437.445
ESTCUBE 1 20 Feb 10:11:51 10:14:37 16° 90° (E) 10:17:21 437.505/2401.250
DUCHIFAT 1 20 Feb 10:23:22 10:27:28 57° 73° (ENE) 10:31:38 145.980
EO-79 20 Feb 10:27:08 10:31:20 75° 74° (ENE) 10:35:36 145.935-145.965
AO-73 20 Feb 10:30:17 10:32:19 13° 302° (WNW) 10:34:20 145.935
POLYITAN 1 20 Feb 10:42:47 10:47:00 76° 257° (WSW) 10:51:17 437.675
QB50P2 20 Feb 10:45:32 10:49:44 66° 258° (WSW) 10:53:59 145.880/145.840
ISS 20 Feb 10:46:16 10:49:35 89° 155° (SSE) 10:52:54 437.550
NANOSAT C BR1 20 Feb 10:47:55 10:52:06 72° 256° (WSW) 10:56:21 145.865
AIST 2D 20 Feb 10:54:24 10:57:34 30° 264° (W) 11:00:46 435.315
YUBILEINY 20 Feb 10:57:59 11:06:51 87° 279° (W) 11:15:43 435.215
DELFI C3 20 Feb 11:02:15 11:04:14 14° 299° (WNW) 11:06:13 145.870
VELOX 1 20 Feb 11:02:25 11:05:25 18° 91° (E) 11:08:25 145.980
Gurwin Techsat 1B 20 Feb 11:09:53 11:13:03 16° 56° (NE) 11:16:15 435.225
Oscar 19 20 Feb 11:10:07 11:14:19 26° 62° (ENE) 11:18:29 437.125/150
DX 1 20 Feb 11:15:14 11:15:59 10° 88° (E) 11:16:43 434.975-435.025
50 SAT 20 Feb 11:15:41 11:17:31 14° 91° (E) 11:19:20 437.505
Tancredo 1 20 Feb 11:25:33 11:28:46 53° 342° (NNW) 11:31:58 437.200
UKube-1 20 Feb 11:37:51 11:39:59 13° 90° (E) 11:42:05 .
BUGSAT 1 20 Feb 11:44:23 11:48:19 53° 260° (W) 11:52:20 437.445
ESTCUBE 1 20 Feb 11:47:23 11:51:50 60° 288° (WNW) 11:56:13 437.505/2401.250
SPROUT 20 Feb 11:53:16 11:57:26 46° 99° (E) 12:01:35 437.525
FO-29 20 Feb 11:59:35 12:02:04 12° 282° (WNW) 12:04:36 435.910
DUCHIFAT 1 20 Feb 12:01:05 12:03:31 15° 270° (W) 12:05:59 145.980
EO-79 20 Feb 12:06:08 12:07:38 12° 272° (W) 12:09:10 145.935-145.965
AO-7 20 Feb 12:16:46 12:23:03 25° 47° (NE) 12:29:20 .
ISS 20 Feb 12:23:11 12:26:18 37° 354° (N) 12:29:24 437.550
VELOX 1 20 Feb 12:37:54 12:42:11 52° 289° (WNW) 12:46:28 145.980
AO-85 20 Feb 12:41:16 12:44:38 26° 41° (NE) 12:48:00 145.980
Gurwin Techsat 1B 20 Feb 12:46:58 12:52:17 88° 249° (WSW) 12:57:40 435.225
50 SAT 20 Feb 12:47:35 12:50:53 42° 289° (WNW) 12:54:10 437.505
Oscar 19 20 Feb 12:48:21 12:53:22 50° 261° (W) 12:58:23 437.125/150
DX 1 20 Feb 12:48:24 12:52:47 87° 283° (WNW) 12:57:08 434.975-435.025
YUBILEINY 20 Feb 12:58:30 13:05:04 22° 302° (WNW) 13:11:39 435.215
Tancredo 1 20 Feb 13:02:26 13:05:28 34° 2° (N) 13:08:29 437.200
ITAMSAT 1 20 Feb 13:09:50 13:14:27 33° 64° (ENE) 13:19:06 435.822/435.867
UKube-1 20 Feb 13:12:10 13:16:28 68° 287° (WNW) 13:20:45 .
SPROUT 20 Feb 13:29:53 13:33:03 20° 297° (WNW) 13:36:12 437.525
